Location: Cactus School
(34.5700°N, 118.0931°W)
Time: 07:29:22
(UTC-07:00)

A-11 Canister half - Visible Passes

Search period start: 13 July 2025 00:00
Search period end: 23 July 2025 00:00
Orbit: 1523 x 1684 km, 47.3° (Epoch: 12 July)

Date Brightness Start Highest point End Pass type
(mag) Time Alt. Az. Time Alt. Az. Time Alt. Az.
13 Jul 10.2 02:15:29 24° SE 02:16:40 24° SE 02:24:02 10° ENE visible
13 Jul 9.1 04:13:45 23° SW 04:20:51 84° SE 04:30:34 10° NE visible
14 Jul 10.3 01:54:47 23° SE 01:54:54 23° SE 02:01:59 10° E visible
14 Jul 9.1 03:53:03 29° SW 03:59:00 80° SE 04:08:43 10° NE visible
15 Jul 10.4 01:34:02 21° ESE 01:34:02 21° ESE 01:39:55 10° E visible
15 Jul 9.1 03:32:18 36° SW 03:37:10 77° SE 03:46:54 10° ENE visible
16 Jul 10.5 01:13:14 19° ESE 01:13:14 19° ESE 01:17:48 10° E visible
16 Jul 9.1 03:11:31 43° SSW 03:15:20 73° SE 03:25:04 10° ENE visible
16 Jul 9.7 05:11:23 10° W 05:20:57 50° NNW 05:30:13 10° NE visible
17 Jul 10.6 00:52:25 16° ESE 00:52:25 16° ESE 00:55:39 10° E visible
17 Jul 9.1 02:50:40 51° SSW 02:53:31 70° SE 03:03:14 10° ENE visible
17 Jul 9.7 04:49:25 10° W 04:59:02 51° NNW 05:08:23 10° NE visible
18 Jul 10.8 00:31:31 13° E 00:31:31 13° E 00:33:27 10° E visible
18 Jul 9.0 02:29:47 57° S 02:31:41 67° SE 02:41:23 10° ENE visible
18 Jul 9.6 04:28:03 12° W 04:37:08 53° NNW 04:46:33 10° NE visible
19 Jul 10.9 00:10:36 11° E 00:10:36 11° E 00:11:10 10° E visible
19 Jul 9.0 02:08:52 61° SSE 02:09:51 63° SE 02:19:32 10° ENE visible
19 Jul 9.6 04:07:07 16° W 04:15:14 54° NNW 04:24:43 10° NE visible
20 Jul 9.1 01:47:53 60° SE 01:48:03 60° SE 01:57:41 10° ENE visible
20 Jul 9.5 03:46:08 20° W 03:53:20 56° NNW 04:02:54 10° NE visible
21 Jul 9.2 01:26:51 56° ESE 01:26:51 56° ESE 01:35:49 10° ENE visible
21 Jul 9.5 03:25:06 25° W 03:31:27 58° NNW 03:41:04 10° NE visible
22 Jul 9.3 01:05:47 51° ESE 01:05:47 51° ESE 01:13:57 10° ENE visible
22 Jul 9.4 03:04:02 29° W 03:09:33 60° NNW 03:19:14 10° NE visible
22 Jul 10.2 05:07:15 10° WNW 05:16:21 39° N 05:25:10 10° ENE visible
